Time,TemperatureF,DewpointF,PressureIn,WindDirection,WindDirectionDegrees,WindSpeedMPH,WindSpeedGustMPH,Humidity,HourlyPrecipIn,Conditions,Clouds,dailyrainin,SoftwareType,DateUTC
2018-01-21 00:08:00,39.0,39.0,-100.00,WNW,300,2.0,6.0,100,-99.99,,,-99.99,,2018-01-21 05:08:00,
2018-01-21 01:07:00,39.0,39.0,-100.00,WSW,250,1.0,6.0,100,-99.99,,,-99.99,,2018-01-21 06:07:00,
2018-01-21 01:37:00,39.0,38.0,-100.00,WSW,240,0.0,3.0,99,-99.99,,,-99.99,,2018-01-21 06:37:00,
2018-01-21 02:07:00,39.0,38.0,-100.00,SW,220,1.0,3.0,99,-99.99,,,-99.99,,2018-01-21 07:07:00,
2018-01-21 03:07:00,38.0,38.0,-100.00,SW,230,1.0,2.0,100,-99.99,,,-99.99,,2018-01-21 08:07:00,
2018-01-21 03:36:00,38.0,38.0,-100.00,WSW,250,1.0,2.0,100,-99.99,,,-99.99,,2018-01-21 08:36:00,
2018-01-21 04:07:00,38.0,38.0,-100.00,WSW,245,0.0,1.0,100,-99.99,,,-99.99,,2018-01-21 09:07:00,
2018-01-21 04:37:00,37.0,37.0,-100.00,SSW,200,1.0,2.0,100,-99.99,,,-99.99,,2018-01-21 09:37:00,
2018-01-21 05:08:00,37.0,37.0,-100.00,SSW,195,0.0,2.0,100,-99.99,,,-99.99,,2018-01-21 10:08:00,
2018-01-21 05:36:00,37.0,37.0,-100.00,SW,230,0.0,1.0,100,-99.99,,,-99.99,,2018-01-21 10:36:00,
2018-01-21 06:08:00,37.0,37.0,-100.00,South,190,0.0,-999.0,100,-99.99,,,-99.99,,2018-01-21 11:08:00,
2018-01-21 06:37:00,37.0,37.0,-100.00,South,190,1.0,2.0,100,-99.99,,,-99.99,,2018-01-21 11:37:00,
2018-01-21 07:07:00,37.0,37.0,-100.00,SSW,200,2.0,3.0,100,-99.99,,,-99.99,,2018-01-21 12:07:00,
2018-01-21 07:36:00,37.0,37.0,-100.00,South,175,1.0,4.0,99,-99.99,,,-99.99,,2018-01-21 12:36:00,
2018-01-21 08:07:00,37.0,37.0,-100.00,South,175,1.0,2.0,100,-99.99,,,-99.99,,2018-01-21 13:07:00,
2018-01-21 08:36:00,37.0,37.0,-100.00,SSE,165,0.0,2.0,100,-99.99,,,-99.99,,2018-01-21 13:36:00,
2018-01-21 09:07:00,37.0,37.0,-100.00,SSW,195,0.0,1.0,100,-99.99,,,-99.99,,2018-01-21 14:07:00,
2018-01-21 09:36:00,37.0,37.0,-100.00,SSE,150,1.0,2.0,100,-99.99,,,-99.99,,2018-01-21 14:36:00,
2018-01-21 10:07:00,38.0,38.0,-100.00,South,190,1.0,3.0,100,-99.99,,,-99.99,,2018-01-21 15:07:00,
2018-01-21 10:37:00,38.0,38.0,-100.00,SSE,165,1.0,2.0,100,-99.99,,,-99.99,,2018-01-21 15:37:00,
2018-01-21 11:07:00,39.0,38.0,-100.00,SSE,165,1.0,2.0,99,-99.99,,,-99.99,,2018-01-21 16:07:00,
2018-01-21 11:36:00,40.0,40.0,-100.00,SW,215,2.0,-999.0,100,-99.99,,,-99.99,,2018-01-21 16:36:00,
2018-01-21 12:08:00,41.0,41.0,-100.00,WSW,255,2.0,4.0,100,-99.99,,,-99.99,,2018-01-21 17:08:00,
2018-01-21 12:37:00,41.0,41.0,-100.00,SSE,160,1.0,4.0,99,-99.99,,,-99.99,,2018-01-21 17:37:00,
2018-01-21 13:08:00,42.0,42.0,-100.00,South,180,3.0,5.0,100,-99.99,,,-99.99,,2018-01-21 18:08:00,
2018-01-21 13:37:00,42.0,42.0,-100.00,South,170,2.0,5.0,100,-99.99,,,-99.99,,2018-01-21 18:37:00,